sat.trackr.live / text

‹ back to catalog

TIANQI-36

NORAD 62368 · 2024-245D

PAYLOAD ACTIVE UNKNOWN

§ Identity

Operator
Country
PRC
Launch date
2024-12-19
Launch site
YSLA
Launch vehicle
Mass (kg)
RCS (m²)

External: N2YO · Heavens-Above · Gunter

§ Orbital elements

Epoch: 2026-09-22T22:22:02.490528Z

Period
102.92 min
Inclination
44.9837°
Eccentricity
0.0006428
Mean motion
13.99208712 rev/d
Perigee alt
891.9 km
Apogee alt
901.2 km
Semi-major
7,274.7 km
B*
5.5685e-5
RAAN
246.5945°
Arg perigee
115.3313°
Mean anomaly
244.8186°
Rev number
9,003

§ Raw data

TIANQI-361 62368U 24245D   26265.93197327 -.00000047  00000+0  55685-4 0  99982 62368  44.9837 246.5945 0006428 115.3313 244.8186 13.99208712 90031

JSON: /api/v1/satellites/62368 · /tle

For live sub-satellite position, see the globe view (requires WebGL).

§ Visibility from observer

Set your observer location to see the next 7 days of passes ≥ 10°. The values pass through the URL so the page stays shareable.

No JS? Fill the form by hand. The geolocation button needs JavaScript.